Location: Easthampton
(42.2676°N, 72.6690°W)
Time: 19:52:32
(UTC+00:00)

AO-91 - Pass Details

Date: 09 April 2023
Orbit: 446 x 775 km, 97.6° (Epoch: 30 May)

Event Time Altitude Azimuth Distance (km) Brightness Sun altitude
Rises 02:28:38 0° 20° (NNE) 3,271 ? -30.5°
Reaches altitude 10° 02:31:08 10° 28° (NNE) 2,339 ? -30.8°
Enters shadow 02:32:30 17° 35° (NE) 1,868 ? -30.9°
